Back to catalog

WESTAR 2

AliveCommunicationsGEO
NORAD 7466·PAYLOAD·🇺🇸 United States

Launched Oct 10, 1974 from Cape Canaveral Space Force Station

Loading…

TLE

FreshSource: Space-Track

Epoch: Sep 14, 2026, 03:49 UTC

1 07466U 74075A   26257.15946380  .00000082  00000-0  00000-0 0  9994
2 07466   7.0654 299.1009 0004753 236.8708 295.0619  0.99845562138541

Track WESTAR 2 in real time with AllMySat

Download on the App Store